Regional Weather Roundup
Issued by NWS Newport/Morehead, NC

Current Version | Previous Version | Text Only | Print | Product List | Glossary On
Versions: 1 2 3 4 5 6 7 8 9 10 11 12 13 14 15 16 17 18 19 20 21 22 23 24 25 26 27 28 29 30 31 32 33 34 35 36 37 38 39 40 41 42 43 44 45 46 47 48 49 50
000 ASUS42 KMHX 240825 RWRMHX WEATHER ROUNDUP FOR EASTERN NORTH CAROLINA NATIONAL WEATHER SERVICE NEWPORT/MOREHEAD CITY NC 400 AM EDT TUE APR 24 2018 NOTE: "FAIR" INDICATES FEW OR NO CLOUDS BELOW 12,000 FEET WITH NO SIGNIFICANT WEATHER AND/OR OBSTRUCTIONS TO VISIBILITY NCZ015>017-031-032-045>047-102-103-240900- NORTH COAST CITY SKY/WX TMP DP RH WIND PRES REMARKS EDENTON DRIZZLE 62 56 80 E9 30.18F ELIZABETH CITY CLOUDY 62 53 72 E14 30.20F KITTY HAWK LGT RAIN 58 50 74 E9 30.20S MANTEO MOCLDY 61 51 70 SE13G20 30.21S $$ NCZ045>047-081-094-103-104-240900- CENTRAL COAST CITY SKY/WX TMP DP RH WIND PRES REMARKS FRISCO LGT RAIN 65 59 81 SE21G31 30.17F $$ NCZ095-097-098-100-101-240900- SOUTHERN COAST CITY SKY/WX TMP DP RH WIND PRES REMARKS BEAUFORT RAIN 63 59 87 SE13 30.12S CEDAR ISLAND NOT AVBL JACKSONVILLE LGT RAIN 63 60 90 SE16G24 30.08F PINEY ISLAND NOT AVBL WILMINGTON RAIN 62 60 93 SE16G22 30.05F FOG $$ NCZ011>013-027>030-043-044-078>080-089-090>093-098-240900- COASTAL PLAIN CITY SKY/WX TMP DP RH WIND PRES REMARKS AHOSKIE LGT RAIN 56 50 80 E6 30.17F CLINTON CLOUDY 60 60 100 E5 30.06F ELIZABETHTOWN LGT RAIN 60 59 96 MISG 30.01F GOLDSBORO LGT RAIN 60 57 90 E16G22 30.08S GREENVILLE LGT RAIN 59 55 88 E6 30.14S HAVELOCK NOT AVBL KENANSVILLE RAIN 61 59 94 E7 30.07F FOG KINSTON LGT RAIN 60 59 96 E9 30.11F NEW BERN LGT RAIN 61 59 93 SE8 30.13F RICHLANDS LGT RAIN 61 59 93 E9 30.09S ROCKY MOUNT LGT RAIN 58 53 84 NE8 30.13S WASHINGTON LGT RAIN 60 58 94 CALM 30.14S WHITEVILLE LGT RAIN 63 60 91 E14G28 29.98S $$ AMZ130-135-150-152-154-156-158-170-250-252-270-ANZ085-086-088-633-658-670-240900- MARINE OBSERVATIONS STATION/POSITION TIME TEMP WIND PRES WAVE SWELL AIR SEA DIR/SP/G HT/PER HT/PER (UTC) (F) (DEG/KT/KT) (MB) (FT/S) (FT/S) CHESAPEAKE LIGHT NOT AVBL 64 E VA BEACH 0750 55 50 110/ 14/ 16 1025.2 5/ 6 2/11 DUCK 0800 56 54 100/ 16/ 18 1022.6 2 E DUCK 0800 53 N/A 4/ 7 OREGON INLET 0800 58 58 90/ 10/ 15 1022.5 13E OREGON INLT 0748 52 N/A 7/ 8 7/ 8 HATTERAS CG 0800 66 62 120/ 14/ 22 1021.2 DIAMOND BUOY 0810 69 72 120/ 27/ 35 1021.6 CAPE LOOKOUT 0700 130/ 19/ 21 1020.1 BEAUFORT LAB 0800 63 62 140/ 15/ 20 1019.8 30 SE NEW RVR IN 0808 66 65 130/ 21/ 29 1017.3 30 SE NEW RVR IN 0800 66 N/A 12/ 8 2/11 27 SE WRIGHTSVLE 0808 66 65 130/ 25/ 35 1016.9 5 SE WRIGHTSVLE 0808 64 61 130/ 17/ 25 1015.5 225 S CAPE HAT 0810 67 72 120/ 25/ 31 1019.4 41 SE CHARLESTON 0810 68 200/ 14/ 23 1011.9 $$

USA.gov is the U.S. government's official web portal to all federal, state and local government web resources and services.